Location: Old Broadwell Mill Observatory
(33.8015°N, 85.8137°W)
Time: 02:21:29
(UTC-06:00)

Amateur Radio Satellites - All Passes

Search period start: 27 January 2015 01:51
Search period end: 28 January 2015 01:51
Location: Old Broadwell Mill Observatory, 33.8015°N, 85.8137°W

Satellite Date Start Highest point End Downlink Frequencies (MHz)
Time Altitude Azimuth
Gurwin Techsat 1B 27 Jan 01:57:25 02:02:32 47° 99° (E) 02:07:39 435.225
STARS 27 Jan 02:18:10 02:22:29 52° 260° (W) 02:26:51 437.465
KKS-1 27 Jan 02:19:01 02:23:03 33° 263° (W) 02:27:05 437.445
AIST 2 27 Jan 02:19:59 02:23:42 32° 113° (ESE) 02:27:32 435.215
AUBIESAT-1 27 Jan 02:26:06 02:30:17 57° 255° (WSW) 02:34:07 437.475
HORYU 2 27 Jan 02:26:35 02:30:17 26° 96° (E) 02:34:00 437.375
BEESAT 2 27 Jan 02:37:29 02:41:31 58° 301° (WNW) 02:45:38 435.950
DANDE 27 Jan 02:40:27 02:44:53 17° 82° (E) 02:50:08 436.750
O/OREOS (USA 219) 27 Jan 02:42:13 02:46:47 66° 253° (WSW) 02:51:20 437.305
Oscar 19 27 Jan 02:47:34 02:49:48 12° 295° (WNW) 02:51:44 437.125/150
BEESAT 3 27 Jan 02:54:44 02:58:26 32° 305° (NW) 03:02:10 437.485
ITAMSAT 1 27 Jan 02:55:45 03:00:18 30° 290° (WNW) 03:04:46 435.822/435.867
CUSAT 1 27 Jan 03:20:04 03:27:11 42° 90° (E) 03:35:04 437.405
PCSat 27 Jan 03:24:12 03:28:38 27° 108° (ESE) 03:33:13 145.827
AO-7 27 Jan 03:34:18 03:42:25 55° 102° (ESE) 03:50:30 29.400- 29.500
Gurwin Techsat 1B 27 Jan 03:38:33 03:42:11 18° 293° (WNW) 03:45:37 435.225
MOZHAYETS 4 27 Jan 03:38:57 03:43:28 58° 75° (ENE) 03:48:00
GONETS M04 27 Jan 03:40:12 03:43:03 11° 299° (WNW) 03:45:04
AIST 2 27 Jan 03:59:09 04:02:24 21° 309° (NW) 04:05:37 435.215
HORYU 2 27 Jan 04:03:19 04:06:52 23° 289° (WNW) 04:10:17 437.375
DANDE 27 Jan 04:19:34 04:27:18 88° 278° (W) 04:36:05 436.750
RS-15 27 Jan 04:25:13 04:35:58 66° 114° (ESE) 04:46:47 29.354- 29.394
STRAND 1 27 Jan 04:33:43 04:35:36 12° 65° (ENE) 04:37:47 437.568
ISS 27 Jan 04:35:20 04:37:58 22° 34° (NE) 04:40:38 145.825
JAS-2 27 Jan 04:39:07 04:44:50 86° 284° (WNW) 04:51:17 435.910
Cubesat XI-IV 27 Jan 04:41:41 04:43:12 11° 89° (E) 04:45:07 437.490
PRISM 27 Jan 04:53:57 04:57:43 36° 73° (ENE) 05:01:31 437.425
CUTE-I 27 Jan 05:00:37 05:04:15 19° 93° (E) 05:08:06 437.470
CUSAT 1 27 Jan 05:02:56 05:10:17 40° 287° (WNW) 05:18:04 437.405
PCSat 27 Jan 05:07:03 05:11:57 34° 303° (WNW) 05:16:50 145.827
MOZHAYETS 4 27 Jan 05:20:12 05:21:09 10° 271° (W) 05:21:45
CUBESAT XI-V 27 Jan 05:24:21 05:28:50 55° 75° (ENE) 05:33:21 437.345
AO-7 27 Jan 05:27:51 05:34:50 30° 298° (WNW) 05:41:35 29.400- 29.500
YUBILEINY 27 Jan 05:49:01 05:56:45 35° 74° (ENE) 06:04:38 435.215
DANDE 27 Jan 06:06:54 06:12:13 17° 298° (WNW) 06:17:16 436.750
STRAND 1 27 Jan 06:09:16 06:14:19 67° 259° (WSW) 06:19:24 437.568
ISS 27 Jan 06:11:34 06:14:31 30° 229° (SW) 06:17:26 145.825
Cubesat XI-IV 27 Jan 06:18:32 06:23:54 70° 285° (WNW) 06:29:14 437.490
PRISM 27 Jan 06:31:15 06:33:27 14° 268° (W) 06:35:25 437.425
CUTE-I 27 Jan 06:39:28 06:44:35 44° 288° (WNW) 06:49:38 437.470
RS-15 27 Jan 06:39:32 06:49:11 33° 316° (NW) 06:58:41 29.354- 29.394
CUBESAT XI-V 27 Jan 07:05:20 07:06:43 11° 270° (W) 07:07:47 437.345
CANX-2 27 Jan 07:39:44 07:42:35 18° 93° (E) 07:45:34 2200.000
YUBILEINY 27 Jan 07:45:31 07:53:43 44° 270° (W) 08:01:49 435.215
BRITE-PL 27 Jan 07:56:35 08:02:02 47° 97° (E) 08:07:16 437.365/2234.400
HO-68 27 Jan 07:59:32 08:06:08 40° 98° (E) 08:12:49 435.675
AAUSAT CUBESAT 2 27 Jan 08:00:49 08:03:29 17° 93° (E) 08:06:18 437.432
CUTE 1.7 + AOD 2 27 Jan 08:03:30 08:07:17 32° 97° (E) 08:11:05 437.475
GOMX 1 27 Jan 08:04:15 08:09:15 37° 96° (E) 08:14:03 467.674
VERMONT LUNAR 27 Jan 08:20:58 08:24:18 46° 150° (SSE) 08:27:41 437.305
CUBEBUG 2 27 Jan 08:25:31 08:26:27 11° 89° (E) 08:27:42 437.445
DOVE 4 27 Jan 08:27:26 08:32:25 45° 98° (E) 08:37:09 437.250
CINEMA 3 27 Jan 08:32:10 08:36:09 26° 94° (E) 08:40:06 145.822/145.860
SEEDS 27 Jan 08:37:07 08:41:19 73° 101° (E) 08:45:29 437.485
ZACube-1 27 Jan 08:42:54 08:44:13 11° 89° (E) 08:45:48 437.345
DX 1 27 Jan 08:49:25 08:52:18 18° 94° (E) 08:55:20 434.975-435.025
NANOSAT C BR1 27 Jan 08:51:37 08:53:17 12° 68° (ENE) 08:55:11 145.865
FUNcube-1 27 Jan 08:54:30 08:57:10 16° 92° (E) 08:59:57 145.935
UNISAT 6 27 Jan 09:02:56 09:07:06 33° 72° (ENE) 09:11:20 437.425
QB50P2 27 Jan 09:03:23 09:06:10 18° 70° (ENE) 09:09:08 145.880/145.840
RS-15 27 Jan 09:03:46 09:06:43 11° 349° (NNW) 09:09:21 29.354- 29.394
PHONESAT 2.4 27 Jan 09:06:02 09:09:34 58° 151° (SSE) 09:13:09 2401.200-2431.200
COMPASS 1 27 Jan 09:07:07 09:11:13 57° 284° (WNW) 09:15:16 437.405
UWE-3 27 Jan 09:07:57 09:11:53 30° 96° (E) 09:15:44 435.000/436.395/437.385
QB50P1 27 Jan 09:13:01 09:16:17 23° 71° (ENE) 09:19:42 145.935-145.965
CANX-2 27 Jan 09:14:55 09:18:36 29° 287° (WNW) 09:22:12 2200.000
POLYITAN 1 27 Jan 09:25:39 09:29:26 32° 73° (ENE) 09:33:20 437.675
Oscar 11 27 Jan 09:32:10 09:36:28 76° 283° (WNW) 09:40:45 145.826/435.025
VELOX 1 27 Jan 09:32:12 09:35:23 19° 94° (E) 09:38:41 145.980
AAUSAT CUBESAT 2 27 Jan 09:35:36 09:39:14 29° 287° (WNW) 09:42:48 437.432
BRITE-PL 27 Jan 09:35:58 09:40:10 21° 292° (WNW) 09:44:05 437.365/2234.400
BUGSAT 1 27 Jan 09:36:26 09:40:01 31° 73° (ENE) 09:43:41 437.445
ANTELSAT 27 Jan 09:38:06 09:42:50 83° 77° (ENE) 09:47:34 437.575/2403.000
CUTE 1.7 + AOD 2 27 Jan 09:40:13 09:43:01 17° 290° (WNW) 09:45:39 437.475
GOMX 1 27 Jan 09:42:51 09:47:08 23° 291° (WNW) 09:51:08 467.674
DELFI C3 27 Jan 09:43:20 09:47:21 65° 284° (WNW) 09:51:20 145.870
SO-50 27 Jan 09:43:43 09:47:52 38° 114° (ESE) 09:52:12 436.795
POPSAT HIP 1 27 Jan 09:46:30 09:50:41 57° 75° (ENE) 09:54:55 437.405
TIGRISAT 27 Jan 09:47:14 09:51:57 80° 259° (W) 09:56:42 435.000
HO-68 27 Jan 09:47:27 09:53:45 33° 293° (WNW) 09:59:54 435.675
CUBEBUG 1 27 Jan 09:49:22 09:50:23 11° 90° (E) 09:51:42 437.445
DUCHIFAT 1 27 Jan 09:50:30 09:54:42 64° 75° (ENE) 09:58:57 145.980
CUBEBUG 2 27 Jan 09:59:10 10:03:39 54° 285° (WNW) 10:07:57 437.445
VERMONT LUNAR 27 Jan 09:59:10 10:02:29 39° 344° (NNW) 10:05:49 437.305
DOVE 4 27 Jan 10:06:14 10:09:48 18° 292° (WNW) 10:13:04 437.250
UKube-1 27 Jan 10:06:17 10:10:35 56° 285° (WNW) 10:14:49 .
CINEMA 3 27 Jan 10:09:16 10:13:18 26° 290° (WNW) 10:17:07 145.822/145.860
ZACube-1 27 Jan 10:16:42 10:21:00 48° 285° (WNW) 10:25:09 437.345
DX 1 27 Jan 10:24:41 10:28:40 33° 288° (WNW) 10:32:34 434.975-435.025
NANOSAT C BR1 27 Jan 10:24:42 10:28:48 46° 261° (W) 10:32:57 145.865
FUNcube-1 27 Jan 10:29:39 10:33:42 35° 287° (WNW) 10:37:35 145.935
50 SAT 27 Jan 10:33:49 10:37:53 77° 284° (WNW) 10:41:52 437.505
ESTCUBE 1 27 Jan 10:33:57 10:38:14 42° 98° (E) 10:42:33 437.505/2401.250
HUMSAT D 27 Jan 10:37:07 10:41:15 51° 285° (WNW) 10:45:18 437.325/437.525
QB50P2 27 Jan 10:38:04 10:41:54 31° 263° (W) 10:45:44 145.880/145.840
AISAT 27 Jan 10:38:10 10:42:39 67° 284° (WNW) 10:47:07 437.250
UNISAT 6 27 Jan 10:40:23 10:43:58 21° 266° (W) 10:47:25 437.425
PHONESAT 2.4 27 Jan 10:44:53 10:48:16 36° 346° (NNW) 10:51:41 2401.200-2431.200
UWE-3 27 Jan 10:44:55 10:48:15 20° 290° (WNW) 10:51:24 435.000/436.395/437.385
QB50P1 27 Jan 10:48:35 10:52:07 24° 265° (W) 10:55:35 145.935-145.965
BEESAT 2 27 Jan 11:01:23 11:04:53 26° 54° (NE) 11:08:24 435.950
POLYITAN 1 27 Jan 11:02:37 11:05:31 17° 267° (W) 11:08:15 437.675
VELOX 1 27 Jan 11:08:03 11:12:03 31° 288° (WNW) 11:15:58 145.980
BUGSAT 1 27 Jan 11:13:01 11:15:38 16° 267° (W) 11:18:06 437.445
SPROUT 27 Jan 11:17:24 11:21:04 27° 96° (E) 11:24:48 437.525
BEESAT 3 27 Jan 11:17:28 11:21:26 44° 58° (ENE) 11:25:22 437.485
RS-15 27 Jan 11:20:00 11:26:05 16° 26° (NNE) 11:32:47 29.354- 29.394
AIST 1 27 Jan 11:21:58 11:26:11 66° 278° (W) 11:30:26
CUBEBUG 1 27 Jan 11:22:48 11:27:09 53° 285° (WNW) 11:31:28 437.445
SO-50 27 Jan 11:25:08 11:28:36 20° 311° (NW) 11:32:02 436.795
VERMONT LUNAR 27 Jan 11:38:06 11:41:07 26° 1° (N) 11:44:09 437.305
GONETS M04 27 Jan 11:50:57 11:59:10 46° 77° (ENE) 12:07:28
TISAT 1 27 Jan 12:01:35 12:05:54 87° 283° (WNW) 12:10:11 437.305
ESTCUBE 1 27 Jan 12:12:08 12:14:50 15° 291° (WNW) 12:17:19 437.505/2401.250
PCSat 27 Jan 12:17:48 12:19:15 11° 45° (NE) 12:21:01 145.827
Oscar 19 27 Jan 12:18:38 12:23:45 65° 75° (ENE) 12:28:56 437.125/150
AIST 2 27 Jan 12:23:27 12:27:45 86° 61° (ENE) 12:31:56 435.215
PHONESAT 2.4 27 Jan 12:24:13 12:27:24 28° 4° (N) 12:30:36 2401.200-2431.200
ITAMSAT 1 27 Jan 12:30:51 12:35:09 28° 70° (ENE) 12:39:34 435.822/435.867
BEESAT 2 27 Jan 12:39:42 12:43:01 23° 249° (WSW) 12:46:12 435.950
SPROUT 27 Jan 12:53:43 12:57:03 21° 289° (WNW) 13:00:16 437.525
BEESAT 3 27 Jan 12:57:20 12:59:14 13° 251° (WSW) 13:00:55 437.485
SWISSCUBE 27 Jan 13:02:53 13:07:38 63° 101° (E) 13:12:22 437.505
Gurwin Techsat 1B 27 Jan 13:14:36 13:19:43 51° 74° (ENE) 13:24:52 435.225
VERMONT LUNAR 27 Jan 13:16:18 13:19:43 47° 18° (NNE) 13:23:08 437.305
BEESAT 27 Jan 13:19:05 13:23:53 87° 103° (ESE) 13:28:40 436.000
ITUPSAT 1 27 Jan 13:21:36 13:26:26 90° 228° (SW) 13:31:14 437.325
HORYU 2 27 Jan 13:22:22 13:25:02 16° 69° (ENE) 13:27:54 437.375
RS-15 27 Jan 13:30:57 13:42:02 55° 54° (NE) 13:53:40 29.354- 29.394
GONETS M04 27 Jan 13:48:19 13:55:46 32° 273° (W) 14:03:00
PCSat 27 Jan 13:58:09 14:03:36 84° 62° (ENE) 14:09:01 145.827
Oscar 19 27 Jan 14:01:38 14:03:39 12° 270° (W) 14:05:18 437.125/150
PHONESAT 2.4 27 Jan 14:02:48 14:06:24 56° 20° (NNE) 14:10:01 2401.200-2431.200
CUSAT 1 27 Jan 14:08:45 14:12:51 19° 64° (ENE) 14:16:29 437.405
ITAMSAT 1 27 Jan 14:10:09 14:14:37 28° 264° (W) 14:19:00 435.822/435.867
STARS 27 Jan 14:12:13 14:16:21 38° 98° (E) 14:20:29 437.465
KKS-1 27 Jan 14:13:40 14:18:09 64° 101° (E) 14:22:35 437.445
AO-7 27 Jan 14:28:44 14:36:44 53° 68° (ENE) 14:44:49 29.400- 29.500
SWISSCUBE 27 Jan 14:43:13 14:45:03 12° 294° (WNW) 14:46:34 437.505
JAS-2 27 Jan 14:49:17 14:53:33 23° 70° (ENE) 14:57:45 435.910
VERMONT LUNAR 27 Jan 14:54:33 14:57:48 34° 212° (SSW) 15:01:03 437.305
Gurwin Techsat 1B 27 Jan 14:56:46 15:00:03 16° 269° (W) 15:03:06 435.225
HORYU 2 27 Jan 14:57:12 15:01:27 39° 262° (W) 15:05:40 437.375
DANDE 27 Jan 15:10:30 15:17:07 64° 78° (ENE) 15:21:58 436.750
M-CUBED/EXP-1 PRIME 27 Jan 15:11:21 15:14:41 87° 106° (ESE) 15:18:07 437.505
O/OREOS (USA 219) 27 Jan 15:12:20 15:15:45 22° 103° (ESE) 15:19:18 437.305
MOZHAYETS 4 27 Jan 15:39:07 15:42:15 19° 93° (E) 15:45:33
PHONESAT 2.4 27 Jan 15:41:40 15:44:52 28° 214° (SW) 15:48:02 2401.200-2431.200
RS-15 27 Jan 15:43:49 15:54:17 40° 251° (WSW) 16:04:50 29.354- 29.394
AUBIESAT-1 27 Jan 15:46:34 15:49:34 31° 290° (WNW) 15:52:36 437.475
STARS 27 Jan 15:49:45 15:52:34 16° 291° (WNW) 15:55:11 437.465
CUSAT 1 27 Jan 15:50:47 15:56:27 41° 270° (W) 16:00:43 437.405
KKS-1 27 Jan 15:53:52 15:54:19 10° 294° (WNW) 15:54:30 437.445
Cubesat XI-IV 27 Jan 15:59:46 16:02:22 14° 66° (ENE) 16:05:15 437.490
CUTE-I 27 Jan 16:18:53 16:22:48 22° 68° (ENE) 16:26:53 437.470
AO-7 27 Jan 16:22:42 16:29:51 30° 264° (W) 16:36:48 29.400- 29.500
JAS-2 27 Jan 16:33:20 16:38:36 35° 262° (W) 16:43:26 435.910
O/OREOS (USA 219) 27 Jan 16:51:14 16:55:04 27° 297° (WNW) 16:58:51 437.305
DANDE 27 Jan 16:56:39 16:59:23 13° 280° (W) 17:01:30 436.750
MOZHAYETS 4 27 Jan 17:15:30 17:19:36 33° 287° (WNW) 17:23:39
CUBESAT XI-V 27 Jan 17:25:57 17:29:15 19° 93° (E) 17:32:42 437.345
JUGNU 27 Jan 17:33:11 17:36:52 17° 170° (S) 17:40:37 437.505
Cubesat XI-IV 27 Jan 17:36:45 17:42:00 62° 259° (WSW) 17:47:18 437.490
CUTE-I 27 Jan 17:57:43 18:02:40 39° 262° (W) 18:07:37 437.470
SRMSAT 27 Jan 18:10:56 18:13:28 13° 166° (SSE) 18:16:06 437.500
PRISM 27 Jan 18:15:38 18:19:46 73° 283° (WNW) 18:23:55 437.425
SO-50 27 Jan 18:19:43 18:22:38 16° 47° (NE) 18:25:43 436.795
STRAND 1 27 Jan 18:23:45 18:28:49 58° 100° (E) 18:33:54 437.568
HO-68 27 Jan 18:25:35 18:30:24 21° 63° (ENE) 18:35:31 435.675
YUBILEINY 27 Jan 18:44:50 18:52:50 45° 90° (E) 19:00:59 435.215
CUTE 1.7 + AOD 2 27 Jan 18:54:02 18:56:28 15° 70° (ENE) 18:59:06 437.475
CUBESAT XI-V 27 Jan 19:02:34 19:06:48 34° 287° (WNW) 19:11:00 437.345
BRITE-PL 27 Jan 19:03:32 19:07:52 33° 71° (ENE) 19:12:36 437.365/2234.400
GOMX 1 27 Jan 19:08:35 19:12:37 26° 70° (ENE) 19:16:59 467.674
JUGNU 27 Jan 19:20:55 19:25:16 21° 180° (S) 19:29:37 437.505
SEEDS 27 Jan 19:25:51 19:29:34 30° 73° (ENE) 19:33:21 437.485
DOVE 4 27 Jan 19:29:05 19:33:20 30° 71° (ENE) 19:37:52 437.250
CINEMA 3 27 Jan 19:30:41 19:33:46 18° 68° (ENE) 19:37:07 145.822/145.860
COMPASS 1 27 Jan 19:54:32 19:58:41 56° 76° (ENE) 20:02:50 437.405
SRMSAT 27 Jan 19:57:47 20:02:00 20° 175° (S) 20:06:15 437.500
SO-50 27 Jan 19:58:47 20:03:40 62° 244° (WSW) 20:08:30 436.795
UWE-3 27 Jan 20:02:08 20:05:06 18° 69° (ENE) 20:08:16 435.000/436.395/437.385
CANX-2 27 Jan 20:03:22 20:07:39 68° 259° (W) 20:11:56 2200.000
STRAND 1 27 Jan 20:04:44 20:07:36 15° 294° (WNW) 20:10:13 437.568
HO-68 27 Jan 20:10:30 20:17:36 67° 257° (WSW) 20:24:43 435.675
AAUSAT CUBESAT 2 27 Jan 20:22:09 20:26:22 75° 259° (WSW) 20:30:35 437.432
Oscar 11 27 Jan 20:22:59 20:27:10 49° 75° (ENE) 20:31:24 145.826/435.025
DELFI C3 27 Jan 20:27:43 20:31:35 43° 75° (ENE) 20:35:29 145.870
CUTE 1.7 + AOD 2 27 Jan 20:28:09 20:32:09 37° 262° (W) 20:36:08 437.475
VELOX 1 27 Jan 20:28:25 20:29:41 11° 67° (ENE) 20:31:12 145.980
YUBILEINY 27 Jan 20:42:08 20:49:51 33° 287° (WNW) 20:57:24 435.215
BRITE-PL 27 Jan 20:42:33 20:46:29 23° 268° (W) 20:50:32 437.365/2234.400
GOMX 1 27 Jan 20:46:17 20:50:38 30° 266° (W) 20:55:10 467.674
CUBEBUG 2 27 Jan 20:52:50 20:57:32 78° 77° (ENE) 21:02:20 437.445
UKube-1 27 Jan 20:57:15 21:01:33 74° 76° (ENE) 21:05:53 .
SEEDS 27 Jan 21:02:31 21:05:29 18° 267° (W) 21:08:18 437.485
CINEMA 3 27 Jan 21:06:00 21:10:38 44° 262° (W) 21:15:25 145.822/145.860
DOVE 4 27 Jan 21:06:59 21:11:06 26° 267° (W) 21:15:18 437.250
ZACube-1 27 Jan 21:08:11 21:12:45 80° 77° (ENE) 21:17:24 437.345
JUGNU 27 Jan 21:09:56 21:13:40 17° 190° (S) 21:17:21 437.505
ISS 27 Jan 21:12:14 21:15:24 50° 134° (SE) 21:18:36 145.825
DX 1 27 Jan 21:16:00 21:20:18 62° 259° (W) 21:24:37 434.975-435.025
50 SAT 27 Jan 21:17:28 21:21:16 37° 74° (ENE) 21:25:08 437.505
FUNcube-1 27 Jan 21:20:46 21:25:20 75° 259° (W) 21:29:57 145.935
HUMSAT D 27 Jan 21:24:53 21:29:10 66° 77° (ENE) 21:33:31 437.325/437.525
ESTCUBE 1 27 Jan 21:30:29 21:34:06 25° 71° (ENE) 21:37:48 437.505/2401.250
AISAT 27 Jan 21:32:14 21:36:37 67° 76° (ENE) 21:41:05 437.250
AIST 1 27 Jan 21:33:58 21:37:09 20° 75° (ENE) 21:40:26
ANTELSAT 27 Jan 21:35:23 21:38:49 22° 94° (E) 21:42:18 437.575/2403.000
UWE-3 27 Jan 21:37:00 21:41:21 39° 262° (W) 21:45:46 435.000/436.395/437.385
POPSAT HIP 1 27 Jan 21:37:47 21:39:41 13° 91° (E) 21:41:49 437.405
DUCHIFAT 1 27 Jan 21:41:11 21:43:24 14° 92° (E) 21:45:50 145.980
TIGRISAT 27 Jan 21:43:55 21:47:41 28° 96° (E) 21:51:27 435.000
SRMSAT 27 Jan 21:46:19 21:50:34 20° 185° (S) 21:54:47 437.500
VELOX 1 27 Jan 22:01:30 22:05:51 55° 260° (W) 22:10:13 145.980
Oscar 11 27 Jan 22:02:17 22:03:43 11° 270° (W) 22:04:52 145.826/435.025
DELFI C3 27 Jan 22:05:46 22:07:08 11° 269° (W) 22:08:13 145.870
SPROUT 27 Jan 22:09:30 22:11:33 14° 69° (ENE) 22:13:50 437.525
NANOSAT C BR1 27 Jan 22:13:57 22:17:55 36° 98° (E) 22:21:54 145.865
CUBEBUG 1 27 Jan 22:15:00 22:19:19 77° 78° (ENE) 22:23:41 437.445
QB50P2 27 Jan 22:27:05 22:31:20 55° 100° (E) 22:35:31 145.880/145.840
UNISAT 6 27 Jan 22:35:26 22:39:53 67° 284° (WNW) 22:44:10 437.425
QB50P1 27 Jan 22:36:58 22:41:17 73° 101° (E) 22:45:34 145.935-145.965
ISS 27 Jan 22:50:01 22:52:09 16° 329° (NNW) 22:54:13 145.825
TISAT 1 27 Jan 22:50:19 22:54:16 40° 74° (ENE) 22:58:18 437.305
POLYITAN 1 27 Jan 22:50:37 22:54:57 75° 283° (WNW) 22:59:13 437.675
50 SAT 27 Jan 22:54:25 22:56:35 14° 268° (W) 22:58:35 437.505
BUGSAT 1 27 Jan 22:57:29 23:01:47 83° 283° (WNW) 23:06:03 437.445
ESTCUBE 1 27 Jan 23:07:15 23:10:56 24° 265° (W) 23:14:33 437.505/2401.250
AIST 1 27 Jan 23:11:10 23:14:50 26° 269° (W) 23:18:24
POPSAT HIP 1 27 Jan 23:11:46 23:15:51 42° 286° (WNW) 23:19:53 437.405
ANTELSAT 27 Jan 23:11:55 23:15:37 25° 289° (WNW) 23:19:09 437.575/2403.000
DUCHIFAT 1 27 Jan 23:15:28 23:19:29 38° 287° (WNW) 23:23:26 145.980
TIGRISAT 27 Jan 23:20:56 23:24:19 21° 290° (WNW) 23:27:32 435.000
SRMSAT 27 Jan 23:36:29 23:39:06 13° 194° (SSW) 23:41:36 437.500
SPROUT 27 Jan 23:43:15 23:47:20 42° 262° (W) 23:51:28 437.525
NANOSAT C BR1 27 Jan 23:50:53 23:53:33 16° 291° (WNW) 23:56:01 145.865
QB50P2 28 Jan 00:05:39 00:06:50 11° 293° (WNW) 00:07:44 145.880/145.840
SWISSCUBE 28 Jan 00:05:49 00:10:19 45° 73° (ENE) 00:14:53 437.505
BEESAT 28 Jan 00:21:44 00:26:25 63° 76° (ENE) 00:31:09 436.000
ITUPSAT 1 28 Jan 00:24:35 00:29:18 67° 75° (ENE) 00:34:03 437.325
TISAT 1 28 Jan 00:28:16 00:30:21 13° 269° (W) 00:32:13 437.305
Oscar 19 28 Jan 00:34:40 00:39:11 31° 96° (E) 00:43:44 437.125/150
GONETS M04 28 Jan 00:46:32 00:55:04 61° 92° (E) 01:03:39
ITAMSAT 1 28 Jan 00:48:57 00:51:18 13° 91° (E) 00:53:58 435.822/435.867
BEESAT 2 28 Jan 00:54:37 00:56:11 12° 109° (ESE) 00:58:01 435.950
AUBIESAT-1 28 Jan 01:00:12 01:00:38 10° 66° (ENE) 01:01:19 437.475
STARS 28 Jan 01:06:12 01:09:32 22° 70° (ENE) 01:13:00 437.465
KKS-1 28 Jan 01:08:17 01:12:20 36° 73° (ENE) 01:16:28 437.445
BEESAT 3 28 Jan 01:08:45 01:11:50 21° 111° (ESE) 01:15:02 437.485
O/OREOS (USA 219) 28 Jan 01:25:36 01:29:18 24° 62° (ENE) 01:33:05 437.305
Gurwin Techsat 1B 28 Jan 01:35:13 01:39:42 28° 95° (E) 01:44:17 435.225
SWISSCUBE 28 Jan 01:45:44 01:48:29 15° 268° (W) 01:50:59 437.505
